Tracking 18980 objects as of 20-Feb-2018
HD Live streaming from Space Station
objects crossing your sky now

FENGYUN 1C DEB

Track FENGYUN 1C DEB now!
10-day predictions


NORAD ID: 30836
Int'l Code: 1999-025AVW
Perigee: 850.6 km
Apogee: 889.7 km
Inclination: 99.1 °
Period: 102.2 minutes
Semi major axis: 7241 km
RCS: 0.0097 m2 (small)
Launch date: May 10, 1999
Source: People's Republic of China (PRC)
Launch site: Taiyaun Space Center, China (TSC)

Note: This is SATELLITE DEBRIS
aabbcc
Your satellite tracking list
Your tracking list is empty




NASA's NSSDC Master Catalog

Two Line Element Set (TLE):
1 30836U 99025AVW 18051.49624671  .00000212  00000-0  14843-3 0  9997
2 30836  99.0612  76.0937 0026969   0.1672 359.9502 14.08940460564755
Source of the keplerian elements: AFSPC